Location: Unspecified
(58.7730°N, 5.8460°E)
Time: 07:46:05
(UTC+02:00)

Cosmos 1674 - Visible Passes

Search period start: 01 August 2014 00:00
Search period end: 11 August 2014 00:00
Orbit: 515 x 544 km, 82.5° (Epoch: 31 July)

Date Brightness Start Highest point End Pass type
(mag) Time Alt. Az. Time Alt. Az. Time Alt. Az.
01 Aug 5.3 03:14:46 10° N 03:17:51 22° ENE 03:20:53 10° ESE visible
02 Aug 5.3 03:04:08 10° N 03:07:07 21° ENE 03:10:05 10° ESE visible
03 Aug 5.3 02:53:29 10° N 02:56:23 20° ENE 02:59:16 10° ESE visible
03 Aug 2.7 04:28:59 10° NNW 04:32:51 69° W 04:36:40 10° S visible
04 Aug 5.3 02:42:49 10° N 02:45:39 19° ENE 02:48:27 10° ESE visible
04 Aug 2.7 04:18:16 10° NNW 04:22:09 73° W 04:25:58 10° S visible
05 Aug 5.4 02:32:10 10° NNE 02:34:54 18° ENE 02:37:37 10° ESE visible
05 Aug 2.7 04:07:33 10° NNW 04:11:27 78° W 04:15:16 10° S visible
06 Aug 5.4 02:21:31 10° NNE 02:24:09 17° ENE 02:26:47 10° E visible
06 Aug 2.7 03:56:50 10° NNW 04:00:44 82° WSW 04:04:34 10° S visible
07 Aug 5.4 02:10:52 10° NNE 02:13:24 17° NE 02:15:55 10° E visible
07 Aug 2.7 03:46:07 10° NNW 03:50:00 87° W 03:53:51 10° S visible
08 Aug 5.4 02:00:12 10° NNE 02:02:38 16° NE 02:05:03 10° E visible
08 Aug 2.7 03:35:24 10° NNW 03:39:17 88° ENE 03:43:07 10° SSE visible
09 Aug 5.4 01:49:33 10° NNE 01:51:52 15° NE 01:54:10 10° E visible
09 Aug 2.7 03:24:40 10° NNW 03:28:33 83° ENE 03:32:13 11° SSE visible
10 Aug 5.4 01:38:54 10° NNE 01:41:06 15° NE 01:43:17 10° E visible
10 Aug 2.8 03:13:56 10° NNW 03:17:49 79° ENE 03:21:08 13° SSE visible
10 Aug 4.6 04:50:57 10° NW 04:53:18 16° W 04:55:38 10° WSW visible
